When you browse on this site, cookies collect data to enhance your experience and personalize the content and advertising you see.
Visit our Privacy Policy to learn more. By continuing to use the site, you agree to this use of cookies and data.
  • In France
  • List of Countries
  • For 7 days
  • Water Temperature
  • Satellite Maps
  • Weather Map
  • Weather Widgets
  • user-avatar
    Login

    Hourly Weather Perth

    Today, 17 December, Monday

    Time Temperature Precipitation Wind Pressure Humidity
    00:00 +20°C° 0 mm 6 mps 755 mmHg 64%
    01:00 +19°C° 0 mm 6 mps 755 mmHg 66%
    02:00 +19°C° 0 mm 5 mps 756 mmHg 69%
    03:00 +17°C° 0 mm 5 mps 756 mmHg 70%
    04:00 +17°C° 0 mm 5 mps 756 mmHg 71%
    05:00 +17°C° 0 mm 5 mps 756 mmHg 72%
    06:00 +19°C° 0 mm 5 mps 757 mmHg 67%
    07:00 +21°C° 0 mm 5 mps 757 mmHg 62%
    08:00 +22°C° 0 mm 5 mps 758 mmHg 57%
    09:00 +22°C° 0 mm 5 mps 758 mmHg 55%
    10:00 +23°C° 0 mm 5 mps 758 mmHg 54%
    11:00 +23°C° 0 mm 5 mps 758 mmHg 53%
    12:00 +25°C° 0 mm 5 mps 758 mmHg 50%
    13:00 +26°C° 0 mm 5 mps 758 mmHg 47%
    14:00 +27°C° 0 mm 5 mps 758 mmHg 44%
    15:00 +26°C° 0 mm 6 mps 758 mmHg 44%
    16:00 +26°C° 0 mm 6 mps 758 mmHg 45%
    17:00 +26°C° 0 mm 6 mps 758 mmHg 45%
    18:00 +24°C° 0 mm 6 mps 758 mmHg 48%
    19:00 +23°C° 0 mm 5 mps 758 mmHg 51%
    20:00 +22°C° 0 mm 5 mps 759 mmHg 54%
    21:00 +21°C° 0 mm 5 mps 759 mmHg 56%
    22:00 +20°C° 0 mm 5 mps 759 mmHg 58%
    23:00 +20°C° 0 mm 4 mps 760 mmHg 60%

    Tomorrow, 18 December, Tuesday

    Time Temperature Precipitation Wind Pressure Humidity
    00:00 +19°C° 0 mm 4 mps 760 mmHg 64%
    01:00 +18°C° 0 mm 4 mps 760 mmHg 67%
    02:00 +17°C° 0 mm 4 mps 760 mmHg 71%
    03:00 +17°C° 0 mm 4 mps 760 mmHg 74%
    04:00 +15°C° 0 mm 4 mps 760 mmHg 78%
    05:00 +16°C° 0 mm 3 mps 760 mmHg 81%
    06:00 +17°C° 0 mm 3 mps 760 mmHg 74%
    07:00 +19°C° 0 mm 3 mps 761 mmHg 66%
    08:00 +21°C° 0 mm 3 mps 761 mmHg 59%
    09:00 +22°C° 0 mm 4 mps 761 mmHg 52%
    10:00 +25°C° 0 mm 4 mps 761 mmHg 46%
    11:00 +27°C° 0 mm 4 mps 761 mmHg 39%
    12:00 +28°C° 0 mm 4 mps 761 mmHg 38%
    13:00 +29°C° 0 mm 5 mps 760 mmHg 36%
    14:00 +29°C° 0 mm 5 mps 760 mmHg 35%
    15:00 +29°C° 0 mm 6 mps 760 mmHg 36%
    16:00 +28°C° 0 mm 6 mps 760 mmHg 38%
    17:00 +28°C° 0 mm 6 mps 759 mmHg 39%
    18:00 +26°C° 0 mm 6 mps 760 mmHg 44%
    19:00 +23°C° 0 mm 5 mps 760 mmHg 50%
    20:00 +22°C° 0 mm 5 mps 761 mmHg 55%
    21:00 +21°C° 0 mm 5 mps 761 mmHg 56%
    22:00 +21°C° 0 mm 4 mps 761 mmHg 57%
    23:00 +20°C° 0 mm 4 mps 762 mmHg 59%

    Day after tomorrow, 19 December, Wednesday

    Time Temperature Precipitation Wind Pressure Humidity
    00:00 +20°C° 0 mm 4 mps 761 mmHg 60%
    01:00 +19°C° 0 mm 4 mps 761 mmHg 62%
    02:00 +19°C° 0 mm 4 mps 761 mmHg 63%
    03:00 +18°C° 0 mm 4 mps 761 mmHg 66%
    04:00 +18°C° 0 mm 4 mps 761 mmHg 68%
    05:00 +16°C° 0 mm 5 mps 761 mmHg 71%
    06:00 +19°C° 0 mm 4 mps 762 mmHg 65%
    07:00 +20°C° 0 mm 4 mps 762 mmHg 59%
    08:00 +22°C° 0 mm 4 mps 762 mmHg 53%
    09:00 +25°C° 0 mm 4 mps 762 mmHg 45%
    10:00 +27°C° 0 mm 4 mps 762 mmHg 38%
    11:00 +29°C° 0 mm 3 mps 762 mmHg 30%
    12:00 +30°C° 0 mm 4 mps 762 mmHg 29%
    13:00 +32°C° 0 mm 4 mps 761 mmHg 28%
    14:00 +33°C° 0 mm 5 mps 761 mmHg 27%
    15:00 +32°C° 0 mm 5 mps 760 mmHg 28%
    16:00 +30°C° 0 mm 6 mps 760 mmHg 29%
    17:00 +30°C° 0 mm 6 mps 760 mmHg 31%
    18:00 +28°C° 0 mm 6 mps 760 mmHg 37%
    19:00 +26°C° 0 mm 5 mps 760 mmHg 44%
    20:00 +23°C° 0 mm 5 mps 761 mmHg 50%
    21:00 +22°C° 0 mm 5 mps 761 mmHg 51%
    22:00 +21°C° 0 mm 5 mps 761 mmHg 52%
    23:00 +21°C° 0 mm 4 mps 762 mmHg 53%

    20 December, Thursday

    Time Temperature Precipitation Wind Pressure Humidity
    00:00 +21°C° 0 mm 5 mps 761 mmHg 52%
    01:00 +21°C° 0 mm 5 mps 761 mmHg 51%
    02:00 +21°C° 0 mm 5 mps 761 mmHg 50%
    03:00 +20°C° 0 mm 5 mps 761 mmHg 52%
    04:00 +20°C° 0 mm 5 mps 761 mmHg 55%
    05:00 +19°C° 0 mm 5 mps 761 mmHg 57%
    06:00 +21°C° 0 mm 5 mps 761 mmHg 53%
    07:00 +22°C° 0 mm 5 mps 762 mmHg 50%
    08:00 +23°C° 0 mm 5 mps 762 mmHg 46%
    09:00 +27°C° 0 mm 5 mps 762 mmHg 40%
    10:00 +29°C° 0 mm 4 mps 762 mmHg 34%
    11:00 +32°C° 0 mm 4 mps 761 mmHg 28%
    12:00 +34°C° 0 mm 4 mps 761 mmHg 25%
    13:00 +35°C° 0 mm 4 mps 760 mmHg 23%
    14:00 +36°C° 0 mm 4 mps 759 mmHg 20%
    15:00 +36°C° 0 mm 5 mps 759 mmHg 21%
    16:00 +35°C° 0 mm 5 mps 759 mmHg 22%
    17:00 +35°C° 0 mm 6 mps 758 mmHg 23%
    18:00 +33°C° 0 mm 6 mps 759 mmHg 26%
    19:00 +30°C° 0 mm 6 mps 759 mmHg 28%
    20:00 +28°C° 0 mm 6 mps 759 mmHg 31%
    21:00 +28°C° 0 mm 6 mps 759 mmHg 32%
    22:00 +27°C° 0 mm 7 mps 760 mmHg 32%
    23:00 +27°C° 0 mm 7 mps 760 mmHg 33%

    21 December, Friday

    Time Temperature Precipitation Wind Pressure Humidity
    00:00 +24°C° 0 mm 7 mps 760 mmHg 38%
    01:00 +23°C° 0 mm 7 mps 760 mmHg 43%
    02:00 +22°C° 0 mm 7 mps 760 mmHg 48%
    03:00 +21°C° 0 mm 7 mps 760 mmHg 48%
    04:00 +21°C° 0 mm 7 mps 760 mmHg 48%
    05:00 +21°C° 0 mm 7 mps 760 mmHg 48%
    06:00 +22°C° 0 mm 7 mps 760 mmHg 45%
    07:00 +23°C° 0 mm 7 mps 761 mmHg 42%
    08:00 +26°C° 0 mm 7 mps 761 mmHg 39%
    09:00 +28°C° 0 mm 6 mps 761 mmHg 35%
    10:00 +32°C° 0 mm 6 mps 760 mmHg 31%
    11:00 +34°C° 0 mm 5 mps 760 mmHg 27%
    12:00 +36°C° 0 mm 5 mps 759 mmHg 25%
    13:00 +37°C° 0 mm 4 mps 758 mmHg 22%
    14:00 +40°C° 0 mm 4 mps 758 mmHg 20%
    15:00 +40°C° 0 mm 4 mps 757 mmHg 20%
    16:00 +40°C° 0 mm 5 mps 757 mmHg 20%
    17:00 +39°C° 0 mm 5 mps 757 mmHg 20%
    18:00 +37°C° 0 mm 5 mps 757 mmHg 23%
    19:00 +35°C° 0 mm 4 mps 757 mmHg 25%
    20:00 +33°C° 0 mm 4 mps 758 mmHg 28%
    21:00 +32°C° 0 mm 4 mps 758 mmHg 27%
    22:00 +32°C° 0 mm 4 mps 758 mmHg 27%
    23:00 +32°C° 0 mm 5 mps 759 mmHg 27%

    22 December, Saturday

    Time Temperature Precipitation Wind Pressure Humidity
    00:00 +30°C° 0 mm 5 mps 758 mmHg 27%
    01:00 +29°C° 0 mm 5 mps 758 mmHg 28%
    02:00 +28°C° 0 mm 6 mps 758 mmHg 28%
    03:00 +28°C° 0 mm 5 mps 758 mmHg 29%
    04:00 +28°C° 0 mm 5 mps 758 mmHg 29%
    05:00 +28°C° 0 mm 5 mps 758 mmHg 30%
    06:00 +30°C° 0 mm 5 mps 758 mmHg 28%
    07:00 +33°C° 0 mm 5 mps 759 mmHg 27%
    08:00 +35°C° 0 mm 5 mps 759 mmHg 25%
    09:00 +37°C° 0 mm 5 mps 759 mmHg 24%
    10:00 +40°C° 0 mm 4 mps 758 mmHg 23%
    11:00 +40°C° 0 mm 3 mps 758 mmHg 22%
    12:00 +41°C° 0 mm 4 mps 758 mmHg 22%
    13:00 +41°C° 0 mm 4 mps 757 mmHg 22%
    14:00 +41°C° 0 mm 4 mps 757 mmHg 22%
    15:00 +41°C° 0 mm 5 mps 757 mmHg 24%
    16:00 +40°C° 0 mm 5 mps 757 mmHg 25%
    17:00 +39°C° 0 mm 5 mps 756 mmHg 26%
    18:00 +36°C° 0 mm 4 mps 757 mmHg 30%
    19:00 +34°C° 0 mm 4 mps 757 mmHg 34%
    20:00 +32°C° 0 mm 4 mps 758 mmHg 38%
    21:00 +32°C° 0 mm 4 mps 758 mmHg 38%
    22:00 +32°C° 0 mm 4 mps 758 mmHg 39%
    23:00 +30°C° 0 mm 4 mps 758 mmHg 39%
    Show more